When you browse on this site, cookies collect data to enhance your experience and personalize the content and advertising you see.
Visit our Privacy Policy to learn more. By continuing to use the site, you agree to this use of cookies and data.
  • In Portugal
  • List of Countries
  • For 7 days
  • Water Temperature
  • Weather Map
  • Weather Widgets
  • user-avatar
    Login

    Hourly Weather Prutz

    Today, 20 August, Tuesday

    Time Temperature Precipitation Wind Pressure Humidity
    00:00 +13°C° 0.2 mm 0 mps 637 mmHg 96%
    01:00 +13°C° 0.2 mm 0 mps 637 mmHg 96%
    02:00 +13°C° 0.2 mm 0 mps 637 mmHg 96%
    03:00 +13°C° 0.2 mm 0 mps 637 mmHg 96%
    04:00 +13°C° 0.2 mm 0 mps 637 mmHg 97%
    05:00 +13°C° 0.6 mm 0 mps 637 mmHg 97%
    06:00 +14°C° 0.6 mm 1 mps 637 mmHg 97%
    07:00 +14°C° 0.6 mm 1 mps 637 mmHg 97%
    08:00 +14°C° 1.1 mm 1 mps 637 mmHg 95%
    09:00 +15°C° 1.1 mm 1 mps 637 mmHg 93%
    10:00 +15°C° 1.1 mm 2 mps 637 mmHg 92%
    11:00 +16°C° 0.4 mm 2 mps 638 mmHg 86%
    12:00 +17°C° 0.4 mm 2 mps 638 mmHg 81%
    13:00 +18°C° 0.4 mm 2 mps 638 mmHg 76%
    14:00 +17°C° 0.3 mm 2 mps 638 mmHg 77%
    15:00 +17°C° 0.3 mm 2 mps 638 mmHg 79%
    16:00 +17°C° 0.3 mm 2 mps 638 mmHg 80%
    17:00 +16°C° 0.8 mm 2 mps 638 mmHg 86%
    18:00 +14°C° 0.8 mm 2 mps 638 mmHg 91%
    19:00 +13°C° 0.8 mm 2 mps 638 mmHg 97%
    20:00 +12°C° 0.6 mm 2 mps 638 mmHg 97%
    21:00 +12°C° 0.6 mm 2 mps 638 mmHg 97%
    22:00 +10°C° 0.6 mm 2 mps 638 mmHg 97%
    23:00 +10°C° 1.8 mm 2 mps 638 mmHg 97%

    Tomorrow, 21 August, Wednesday

    Time Temperature Precipitation Wind Pressure Humidity
    00:00 +9°C° 1.8 mm 2 mps 638 mmHg 97%
    01:00 +8°C° 1.8 mm 2 mps 638 mmHg 97%
    02:00 +8°C° 1.3 mm 2 mps 638 mmHg 97%
    03:00 +8°C° 1.3 mm 2 mps 638 mmHg 97%
    04:00 +8°C° 1.3 mm 2 mps 638 mmHg 97%
    05:00 +9°C° 0.4 mm 1 mps 638 mmHg 96%
    06:00 +9°C° 0.4 mm 1 mps 639 mmHg 95%
    07:00 +10°C° 0.4 mm 1 mps 639 mmHg 94%
    08:00 +11°C° 0 mm 1 mps 639 mmHg 90%
    09:00 +13°C° 0 mm 1 mps 639 mmHg 85%
    10:00 +14°C° 0 mm 1 mps 640 mmHg 81%
    11:00 +16°C° 0 mm 1 mps 640 mmHg 75%
    12:00 +18°C° 0 mm 1 mps 640 mmHg 70%
    13:00 +18°C° 0 mm 2 mps 640 mmHg 64%
    14:00 +18°C° 0.2 mm 2 mps 640 mmHg 65%
    15:00 +18°C° 0.2 mm 2 mps 640 mmHg 66%
    16:00 +19°C° 0.2 mm 2 mps 640 mmHg 67%
    17:00 +17°C° 0.3 mm 2 mps 639 mmHg 75%
    18:00 +15°C° 0.3 mm 1 mps 639 mmHg 83%
    19:00 +14°C° 0.3 mm 1 mps 639 mmHg 91%
    20:00 +13°C° 0.1 mm 1 mps 639 mmHg 92%
    21:00 +13°C° 0.1 mm 1 mps 639 mmHg 92%
    22:00 +12°C° 0.1 mm 1 mps 639 mmHg 92%
    23:00 +12°C° 0.2 mm 1 mps 639 mmHg 91%

    Day after tomorrow, 22 August, Thursday

    Time Temperature Precipitation Wind Pressure Humidity
    00:00 +12°C° 0.2 mm 1 mps 638 mmHg 90%
    01:00 +12°C° 0.2 mm 1 mps 638 mmHg 90%
    02:00 +12°C° 0 mm 1 mps 638 mmHg 89%
    03:00 +11°C° 0 mm 1 mps 638 mmHg 89%
    04:00 +11°C° 0 mm 1 mps 638 mmHg 88%
    05:00 +12°C° 0 mm 1 mps 638 mmHg 85%
    06:00 +13°C° 0 mm 0 mps 639 mmHg 81%
    07:00 +14°C° 0 mm 0 mps 640 mmHg 78%
    08:00 +16°C° 0 mm 0 mps 640 mmHg 71%
    09:00 +19°C° 0 mm 1 mps 641 mmHg 64%
    10:00 +21°C° 0 mm 1 mps 641 mmHg 57%
    11:00 +22°C° 0.2 mm 1 mps 641 mmHg 55%
    12:00 +22°C° 0.2 mm 1 mps 641 mmHg 53%
    13:00 +23°C° 0.2 mm 2 mps 641 mmHg 50%
    14:00 +21°C° 0.7 mm 2 mps 641 mmHg 56%
    15:00 +20°C° 0.7 mm 2 mps 641 mmHg 62%
    16:00 +20°C° 0.7 mm 2 mps 640 mmHg 68%
    17:00 +18°C° 0.7 mm 2 mps 640 mmHg 76%
    18:00 +18°C° 0.7 mm 1 mps 640 mmHg 84%
    19:00 +15°C° 0.7 mm 1 mps 639 mmHg 92%
    20:00 +14°C° 0.3 mm 1 mps 639 mmHg 93%
    21:00 +14°C° 0.3 mm 1 mps 640 mmHg 94%
    22:00 +12°C° 0.3 mm 0 mps 640 mmHg 95%
    23:00 +12°C° 0 mm 0 mps 639 mmHg 94%

    23 August, Friday

    Time Temperature Precipitation Wind Pressure Humidity
    00:00 +11°C° 0 mm 0 mps 639 mmHg 94%
    01:00 +11°C° 0 mm 0 mps 639 mmHg 94%
    02:00 +11°C° 0 mm 0 mps 639 mmHg 92%
    03:00 +12°C° 0 mm 1 mps 639 mmHg 91%
    04:00 +12°C° 0 mm 1 mps 638 mmHg 90%
    05:00 +13°C° 0 mm 1 mps 639 mmHg 88%
    06:00 +14°C° 0 mm 1 mps 639 mmHg 85%
    07:00 +15°C° 0 mm 1 mps 640 mmHg 83%
    08:00 +18°C° 0 mm 1 mps 640 mmHg 75%
    09:00 +20°C° 0 mm 1 mps 641 mmHg 66%
    10:00 +22°C° 0 mm 1 mps 642 mmHg 58%
    11:00 +22°C° 0.4 mm 1 mps 642 mmHg 56%
    12:00 +23°C° 0.4 mm 1 mps 641 mmHg 54%
    13:00 +23°C° 0.4 mm 1 mps 641 mmHg 53%
    14:00 +23°C° 1 mm 1 mps 641 mmHg 58%
    15:00 +22°C° 1 mm 1 mps 641 mmHg 63%
    16:00 +21°C° 1 mm 1 mps 640 mmHg 68%
    17:00 +20°C° 0.9 mm 1 mps 640 mmHg 74%
    18:00 +19°C° 0.9 mm 1 mps 639 mmHg 80%
    19:00 +16°C° 0.9 mm 0 mps 639 mmHg 86%
    20:00 +16°C° 0.2 mm 1 mps 639 mmHg 85%
    21:00 +16°C° 0.2 mm 1 mps 639 mmHg 85%
    22:00 +15°C° 0.2 mm 1 mps 639 mmHg 85%
    23:00 +14°C° 0 mm 1 mps 639 mmHg 85%

    24 August, Saturday

    Time Temperature Precipitation Wind Pressure Humidity
    00:00 +14°C° 0 mm 2 mps 638 mmHg 84%
    01:00 +13°C° 0 mm 2 mps 638 mmHg 84%
    02:00 +13°C° 0 mm 2 mps 638 mmHg 84%
    03:00 +13°C° 0 mm 2 mps 638 mmHg 84%
    04:00 +12°C° 0 mm 2 mps 637 mmHg 84%
    05:00 +13°C° 0 mm 2 mps 638 mmHg 82%
    06:00 +14°C° 0 mm 2 mps 638 mmHg 81%
    07:00 +15°C° 0 mm 2 mps 638 mmHg 79%
    08:00 +17°C° 0 mm 2 mps 639 mmHg 70%
    09:00 +20°C° 0 mm 1 mps 640 mmHg 60%
    10:00 +23°C° 0 mm 1 mps 640 mmHg 51%
    11:00 +23°C° 0.1 mm 1 mps 640 mmHg 49%
    12:00 +24°C° 0.1 mm 1 mps 640 mmHg 46%
    13:00 +25°C° 0.1 mm 1 mps 640 mmHg 44%
    14:00 +24°C° 0.8 mm 1 mps 640 mmHg 51%
    15:00 +22°C° 0.8 mm 1 mps 639 mmHg 58%
    16:00 +21°C° 0.8 mm 1 mps 639 mmHg 65%
    17:00 +20°C° 1 mm 1 mps 638 mmHg 72%
    18:00 +19°C° 1 mm 1 mps 638 mmHg 78%
    19:00 +15°C° 1 mm 0 mps 637 mmHg 85%
    20:00 +16°C° 0.4 mm 1 mps 638 mmHg 85%
    21:00 +15°C° 0.4 mm 1 mps 638 mmHg 85%
    22:00 +15°C° 0.4 mm 1 mps 638 mmHg 85%
    23:00 +14°C° 0 mm 1 mps 637 mmHg 85%

    25 August, Sunday

    Time Temperature Precipitation Wind Pressure Humidity
    00:00 +13°C° 0 mm 1 mps 637 mmHg 85%
    01:00 +13°C° 0 mm 1 mps 637 mmHg 85%
    02:00 +13°C° 0 mm 1 mps 637 mmHg 85%
    03:00 +12°C° 0 mm 1 mps 636 mmHg 85%
    04:00 +12°C° 0 mm 1 mps 636 mmHg 85%
    05:00 +13°C° 0 mm 1 mps 637 mmHg 82%
    06:00 +15°C° 0 mm 1 mps 637 mmHg 80%
    07:00 +16°C° 0 mm 1 mps 638 mmHg 78%
    08:00 +19°C° 0 mm 1 mps 638 mmHg 70%
    09:00 +20°C° 0 mm 1 mps 639 mmHg 63%
    10:00 +20°C° 0 mm 0 mps 639 mmHg 55%
    11:00 +23°C° 0.7 mm 1 mps 639 mmHg 54%
    12:00 +23°C° 0.7 mm 1 mps 639 mmHg 53%
    13:00 +24°C° 0.7 mm 1 mps 639 mmHg 52%
    14:00 +23°C° 1.4 mm 1 mps 639 mmHg 59%
    15:00 +22°C° 1.4 mm 1 mps 638 mmHg 65%
    16:00 +21°C° 1.4 mm 1 mps 638 mmHg 72%
    17:00 +20°C° 1.2 mm 1 mps 637 mmHg 77%
    18:00 +18°C° 1.2 mm 1 mps 637 mmHg 82%
    19:00 +15°C° 1.2 mm 0 mps 637 mmHg 87%
    20:00 +15°C° 0.6 mm 0 mps 637 mmHg 87%
    21:00 +15°C° 0.6 mm 0 mps 637 mmHg 87%
    22:00 +15°C° 0.6 mm 0 mps 637 mmHg 88%
    23:00 +14°C° 0.1 mm 0 mps 637 mmHg 88%
    Show more